User: anonymous   Login
Location: Newark
(48.1500°N, 13.1167°E)
Time: 22:53:45
(UTC+00:00)
Language:

POLYITAN 1 - Orbit

View from above orbital plane
View from above orbital plane
View from above satellite
View from above satellite

Ground track
Ground track

The orbit data is extracted from the following two-line orbital elements,

1 40042U 14033AJ  21335.28863259  .00001329  00000-0  14529-3 0  9997
2 40042  97.9541 267.4593 0014334 347.1793  12.9057 14.89524573404147
Epoch (UTC): 01 December 2021 06:55:37
Eccentricity: 0.0014334
inclination: 97.9541°
perigee height: 589 km
apogee height: 609 km
right ascension of ascending node: 267.4593°
argument of perigee: 347.1793°
revolutions per day: 14.89524573
mean anomaly at epoch: 12.9057°
orbit number at epoch: 40414

The dashed part of the orbit path shows where the satellite is in the earth's shadow,  

DLR